This is the latest recevied weather packets stored in our database for station/object K5WNG. If no packets are shown the sender has not sent any weather packets the latest 10 day(s).
| Time | Temp. | Humidity | Pressure | Rain* | Wind** | Luminosity | Snow |
|---|---|---|---|---|---|---|---|
| 1777609526 | 16.67° C | 99% | 1013.7 hPa | 0.25 mm | - | 0 W/m² | - |
| 1777609224 | 17.22° C | 99% | 1013.9 hPa | 0.25 mm | - | 0 W/m² | - |
| 1777608929 | 17.22° C | 99% | 1014 hPa | 0.25 mm | - | 0 W/m² | - |
| 1777608627 | 17.22° C | 99% | 1013.8 hPa | 0.51 mm | - | 0 W/m² | - |
| 1777608321 | 17.22° C | 99% | 1013.5 hPa | 0.51 mm | - | 0 W/m² | - |
| 1777608021 | 17.22° C | 99% | 1013.2 hPa | 0.51 mm | - | 0 W/m² | - |
| 1777607724 | 17.22° C | 99% | 1013.1 hPa | 0.76 mm | - | 0 W/m² | - |
| 1777607424 | 17.22° C | 99% | 1012.6 hPa | 0.76 mm | - | 0 W/m² | - |
| 1777607125 | 17.22° C | 99% | 1012.5 hPa | 1.52 mm | - | 0 W/m² | - |
| 1777606819 | 17.22° C | 99% | 1012.3 hPa | 1.78 mm | - | 0 W/m² | - |
| 1777606519 | 17.22° C | 99% | 1012 hPa | 2.54 mm | - | 0 W/m² | - |
| 1777606224 | 17.22° C | 99% | 1012.8 hPa | 2.79 mm | - | 0 W/m² | - |
| 1777605925 | 17.22° C | 99% | 1013.2 hPa | 3.05 mm | - | 0 W/m² | - |
| 1777605625 | 17.22° C | 99% | 1013.4 hPa | 3.05 mm | - | 0 W/m² | - |
| 1777605328 | 17.22° C | 99% | 1013.2 hPa | 3.05 mm | - | 0 W/m² | - |
| 1777605027 | 17.78° C | 99% | 1013.5 hPa | 2.79 mm | - | 0 W/m² | - |
| 1777604729 | 17.78° C | 99% | 1013.5 hPa | 2.79 mm | - | 0 W/m² | - |
| 1777604428 | 17.78° C | 99% | 1013.4 hPa | 2.54 mm | - | 0 W/m² | - |
| 1777604125 | 17.78° C | 99% | 1013.3 hPa | 2.54 mm | - | 0 W/m² | - |
| 1777603825 | 17.78° C | 99% | 1013.6 hPa | 2.29 mm | - | 0 W/m² | - |
| 1777603528 | 17.78° C | 99% | 1013.6 hPa | 1.78 mm | - | 0 W/m² | - |
| 1777603225 | 17.78° C | 99% | 1013.2 hPa | 1.27 mm | - | 0 W/m² | - |
| 1777602929 | 17.78° C | 99% | 1012.9 hPa | 0.76 mm | - | 0 W/m² | - |
| 1777602617 | 17.78° C | 99% | 1013.5 hPa | 0.25 mm | - | 0 W/m² | - |
| 1777602320 | 17.78° C | 99% | 1013.2 hPa | 0 mm | - | 0 W/m² | - |
* Rain latest hour (hover to see other rain measurements)
** Current wind speed in m/s (hover to see current wind gust speed)